VIV236 MMUN-MMTJ

Flight info

Callsign VIV236
Flight time 4h 26m
Altitude 34000
Route UDGUV2A UDGUV UT78 DURPI DCT NOTEN UT37 ULUMA/N0457F360 DCT MTY DCT TASTO DCT ILAMA UT41 NADIS DCT AVRIL UJ3 TANRI TANRI1B
Aircraft A320/M-SDE3FGHIRWY/LB1

Departure

Time 2026-05-08 18:28
Airport Cancún International Airport (MMUN)

Arrival

Time 2026-05-08 22:54
Airport General Abelardo L. Rodriguez International Airport (MMTJ)
Time Latitude Longitude Altitude Speed Heading
2026-05-08 18:03 21.04059 -86.87688 29 ft 0 kts 128°
2026-05-08 18:18 21.04074 -86.87708 29 ft 4 kts 130°
2026-05-08 18:18 21.04092 -86.87729 29 ft 4 kts 138°
2026-05-08 18:18 21.04113 -86.87745 29 ft 4 kts 166°
2026-05-08 18:19 21.04130 -86.87745 29 ft 0 kts 213°
2026-05-08 18:23 21.04113 -86.87757 29 ft 6 kts 214°
2026-05-08 18:23 21.04066 -86.87793 29 ft 11 kts 215°
2026-05-08 18:23 21.03999 -86.87843 30 ft 12 kts 219°
2026-05-08 18:24 21.03996 -86.87935 30 ft 16 kts 296°
2026-05-08 18:24 21.04056 -86.88024 30 ft 12 kts 304°
2026-05-08 18:24 21.04113 -86.88115 30 ft 17 kts 304°
2026-05-08 18:24 21.04190 -86.88236 30 ft 22 kts 304°
2026-05-08 18:25 21.04275 -86.88369 30 ft 23 kts 304°
2026-05-08 18:25 21.04364 -86.88515 30 ft 25 kts 303°
2026-05-08 18:25 21.04455 -86.88660 31 ft 22 kts 304°
2026-05-08 18:25 21.04546 -86.88803 30 ft 25 kts 304°
2026-05-08 18:26 21.04640 -86.88960 30 ft 11 kts 279°
2026-05-08 18:26 21.04619 -86.89019 30 ft 0 kts 221°
2026-05-08 18:26 21.04618 -86.89020 31 ft 1 kts 221°
2026-05-08 18:27 21.04594 -86.89040 31 ft 7 kts 213°
2026-05-08 18:27 21.04558 -86.89064 30 ft 11 kts 212°
2026-05-08 18:27 21.04462 -86.88985 31 ft 21 kts 123°
2026-05-08 18:27 21.04261 -86.88662 35 ft 83 kts 124°
2026-05-08 18:28 21.03834 -86.87984 33 ft 134 kts 124°
2026-05-08 18:28 21.03234 -86.87028 53 ft 172 kts 124°
2026-05-08 18:28 21.02543 -86.85956 497 ft 176 kts 123°
2026-05-08 18:28 21.01837 -86.84888 1065 ft 177 kts 138°
2026-05-08 18:29 21.00717 -86.84332 1433 ft 190 kts 177°
2026-05-08 18:29 20.99402 -86.84762 1570 ft 214 kts 209°
2026-05-08 18:29 20.98073 -86.85652 1763 ft 237 kts 210°
2026-05-08 18:29 20.96615 -86.86646 2093 ft 257 kts 210°
2026-05-08 18:30 20.95094 -86.87712 2732 ft 267 kts 214°
2026-05-08 18:30 20.93860 -86.89217 2943 ft 274 kts 239°
2026-05-08 18:30 20.93310 -86.91179 2991 ft 280 kts 259°
2026-05-08 18:30 20.93038 -86.93243 2992 ft 280 kts 259°
2026-05-08 18:31 20.92756 -86.95307 2992 ft 280 kts 259°
2026-05-08 18:31 20.92469 -86.97361 2990 ft 280 kts 258°
2026-05-08 18:31 20.92175 -86.99424 2990 ft 280 kts 258°
2026-05-08 18:31 20.91876 -87.01498 3396 ft 284 kts 258°
2026-05-08 18:32 20.91573 -87.03581 4243 ft 283 kts 258°
2026-05-08 18:32 20.91268 -87.05675 5003 ft 287 kts 258°
2026-05-08 18:32 20.90964 -87.07760 5731 ft 289 kts 258°
2026-05-08 18:32 20.90650 -87.09920 6452 ft 291 kts 258°
2026-05-08 18:33 20.90336 -87.12068 7156 ft 294 kts 258°
2026-05-08 18:33 20.90020 -87.14236 7775 ft 297 kts 258°
2026-05-08 18:33 20.89702 -87.16433 8353 ft 300 kts 258°
2026-05-08 18:33 20.89382 -87.18645 8988 ft 303 kts 259°
2026-05-08 18:34 20.89060 -87.20875 9605 ft 305 kts 259°
2026-05-08 18:34 20.88733 -87.23126 10165 ft 311 kts 259°
2026-05-08 18:34 20.88386 -87.25480 10300 ft 329 kts 259°
2026-05-08 18:34 20.88022 -87.27952 10586 ft 341 kts 259°
2026-05-08 18:35 20.87656 -87.30477 11087 ft 345 kts 259°
2026-05-08 18:35 20.87292 -87.32987 11619 ft 348 kts 259°
2026-05-08 18:35 20.86920 -87.35547 12173 ft 350 kts 260°
2026-05-08 18:35 20.86544 -87.38126 12703 ft 352 kts 259°
2026-05-08 18:36 20.86163 -87.40723 13202 ft 355 kts 259°
2026-05-08 18:36 20.85776 -87.43337 13698 ft 358 kts 259°
2026-05-08 18:36 20.85386 -87.45971 14190 ft 360 kts 259°
2026-05-08 18:36 20.84993 -87.48628 14665 ft 363 kts 259°
2026-05-08 18:37 20.84598 -87.51302 15136 ft 365 kts 259°
2026-05-08 18:37 20.84201 -87.53995 15585 ft 368 kts 259°
2026-05-08 18:37 20.83799 -87.56707 16044 ft 371 kts 259°
2026-05-08 18:37 20.83394 -87.59439 16488 ft 373 kts 259°
2026-05-08 18:38 20.82986 -87.62188 16924 ft 376 kts 259°
2026-05-08 18:38 20.82574 -87.64957 17362 ft 378 kts 259°
2026-05-08 18:38 20.82160 -87.67745 17780 ft 381 kts 259°
2026-05-08 18:38 20.81740 -87.70555 18196 ft 384 kts 259°
2026-05-08 18:39 20.81317 -87.73378 18617 ft 386 kts 259°
2026-05-08 18:39 20.80896 -87.76218 19045 ft 388 kts 260°
2026-05-08 18:39 20.80732 -87.79114 19373 ft 396 kts 269°
2026-05-08 18:39 20.80795 -87.82087 19598 ft 403 kts 269°
2026-05-08 18:40 20.80867 -87.85093 19970 ft 406 kts 270°
2026-05-08 18:40 20.80942 -87.88124 20389 ft 409 kts 269°
2026-05-08 18:40 20.80966 -87.89110 20527 ft 409 kts 269°
2026-05-08 18:41 20.80989 -87.90093 20663 ft 410 kts 269°
2026-05-08 18:41 20.81079 -87.92915 21158 ft 408 kts 270°
2026-05-08 18:41 20.81156 -87.95963 21459 ft 412 kts 269°
2026-05-08 18:42 20.81216 -87.99031 21837 ft 414 kts 269°
2026-05-08 18:42 20.81270 -88.02077 22212 ft 416 kts 269°
2026-05-08 18:42 20.81326 -88.05216 22610 ft 418 kts 269°
2026-05-08 18:42 20.81383 -88.08324 22981 ft 419 kts 269°
2026-05-08 18:43 20.81443 -88.11448 23336 ft 421 kts 269°
2026-05-08 18:43 20.81503 -88.14536 23672 ft 422 kts 269°
2026-05-08 18:43 20.81566 -88.17678 24015 ft 424 kts 269°
2026-05-08 18:43 20.81631 -88.20836 24342 ft 425 kts 269°
2026-05-08 18:44 20.81697 -88.24000 24667 ft 427 kts 269°
2026-05-08 18:44 20.81761 -88.27175 24986 ft 428 kts 269°
2026-05-08 18:44 20.81825 -88.30356 25303 ft 429 kts 269°
2026-05-08 18:44 20.81886 -88.33553 25609 ft 430 kts 269°
2026-05-08 18:45 20.81944 -88.36753 25907 ft 432 kts 269°
2026-05-08 18:45 20.82002 -88.39964 26208 ft 433 kts 269°
2026-05-08 18:45 20.82059 -88.43181 26497 ft 434 kts 269°
2026-05-08 18:45 20.82117 -88.46410 26784 ft 435 kts 269°
2026-05-08 18:46 20.82176 -88.49646 27057 ft 436 kts 269°
2026-05-08 18:46 20.82237 -88.52893 27319 ft 437 kts 269°
2026-05-08 18:46 20.82299 -88.56146 27585 ft 438 kts 269°
2026-05-08 18:46 20.82360 -88.59406 27858 ft 439 kts 269°
2026-05-08 18:47 20.82421 -88.62678 28119 ft 440 kts 269°
2026-05-08 18:47 20.82480 -88.65955 28374 ft 442 kts 269°
2026-05-08 18:47 20.82540 -88.69247 28640 ft 443 kts 269°
2026-05-08 18:47 20.82599 -88.72534 29013 ft 441 kts 269°
2026-05-08 18:48 20.82655 -88.75806 29393 ft 440 kts 269°
2026-05-08 18:48 20.82707 -88.79073 29772 ft 439 kts 269°
2026-05-08 18:48 20.82756 -88.82322 30161 ft 437 kts 269°
2026-05-08 18:48 20.82805 -88.85561 30553 ft 435 kts 269°
2026-05-08 18:49 20.82856 -88.88747 30921 ft 434 kts 269°
2026-05-08 18:49 20.82907 -88.91965 31264 ft 433 kts 269°
2026-05-08 18:49 20.82956 -88.95181 31613 ft 432 kts 269°
2026-05-08 18:49 20.83003 -88.98387 31963 ft 431 kts 269°
2026-05-08 18:50 20.83050 -89.01584 32311 ft 430 kts 269°
2026-05-08 18:50 20.83098 -89.04777 32641 ft 429 kts 269°
2026-05-08 18:50 20.83150 -89.07965 32961 ft 428 kts 269°
2026-05-08 18:50 20.83198 -89.11146 33287 ft 428 kts 269°
2026-05-08 18:51 20.83244 -89.14317 33589 ft 426 kts 269°
2026-05-08 18:51 20.83291 -89.17482 33852 ft 426 kts 269°
2026-05-08 18:51 20.84196 -89.23764 33937 ft 435 kts 287°
2026-05-08 18:52 20.86814 -89.29650 33933 ft 440 kts 295°
2026-05-08 18:52 20.89607 -89.35476 33935 ft 440 kts 295°
2026-05-08 18:53 20.92376 -89.41320 33929 ft 441 kts 295°
2026-05-08 18:53 20.95151 -89.47165 33925 ft 441 kts 295°
2026-05-08 18:54 20.97935 -89.53007 33928 ft 441 kts 295°
2026-05-08 18:54 21.00718 -89.58854 33934 ft 441 kts 295°
2026-05-08 18:55 21.04868 -89.67601 33938 ft 441 kts 295°
2026-05-08 18:56 21.07634 -89.73449 33936 ft 440 kts 295°
2026-05-08 18:56 21.10396 -89.79295 33937 ft 440 kts 294°
2026-05-08 18:57 21.13164 -89.85134 33936 ft 439 kts 295°
2026-05-08 18:57 21.15924 -89.90974 33937 ft 439 kts 294°
2026-05-08 18:58 21.18672 -89.96815 33943 ft 439 kts 294°
2026-05-08 18:58 21.21420 -90.02650 33937 ft 438 kts 294°
2026-05-08 18:59 21.24166 -90.08481 33935 ft 438 kts 294°
2026-05-08 18:59 21.26905 -90.14303 33931 ft 437 kts 294°
2026-05-08 19:00 21.29182 -90.19143 33932 ft 437 kts 294°
2026-05-08 19:00 21.32369 -90.25949 33930 ft 437 kts 294°
2026-05-08 19:01 21.35100 -90.31771 33936 ft 437 kts 294°
2026-05-08 19:01 21.37829 -90.37592 33946 ft 437 kts 294°
2026-05-08 19:02 21.40555 -90.43415 33936 ft 436 kts 294°
2026-05-08 19:02 21.43272 -90.49234 33935 ft 436 kts 294°
2026-05-08 19:03 21.45980 -90.55058 33934 ft 436 kts 294°
2026-05-08 19:03 21.48679 -90.60848 33935 ft 436 kts 294°
2026-05-08 19:04 21.51389 -90.66668 33936 ft 436 kts 294°
2026-05-08 19:04 21.54097 -90.72494 33930 ft 436 kts 294°
2026-05-08 19:05 21.56799 -90.78320 33922 ft 436 kts 294°
2026-05-08 19:05 21.59511 -90.84148 33917 ft 436 kts 294°
2026-05-08 19:06 21.62213 -90.89987 33917 ft 436 kts 294°
2026-05-08 19:06 21.64917 -90.95822 33913 ft 436 kts 294°
2026-05-08 19:07 21.67620 -91.01661 33910 ft 436 kts 294°
2026-05-08 19:07 21.70317 -91.07501 33910 ft 436 kts 294°
2026-05-08 19:08 21.73012 -91.13330 33908 ft 435 kts 294°
2026-05-08 19:08 21.75695 -91.19159 33908 ft 435 kts 294°
2026-05-08 19:09 21.78376 -91.24994 33904 ft 435 kts 294°
2026-05-08 19:09 21.81061 -91.30820 33909 ft 434 kts 294°
2026-05-08 19:10 21.83736 -91.36641 33908 ft 434 kts 294°
2026-05-08 19:10 21.86382 -91.42425 33907 ft 433 kts 294°
2026-05-08 19:11 21.89049 -91.48242 33909 ft 433 kts 294°
2026-05-08 19:11 21.91711 -91.54054 33912 ft 433 kts 294°
2026-05-08 19:12 21.94365 -91.59868 33914 ft 432 kts 294°
2026-05-08 19:12 21.97016 -91.65674 33913 ft 432 kts 294°
2026-05-08 19:13 21.99663 -91.71482 33914 ft 432 kts 294°
2026-05-08 19:13 22.02309 -91.77288 33918 ft 431 kts 294°
2026-05-08 19:14 22.04954 -91.83090 33917 ft 431 kts 294°
2026-05-08 19:14 22.07586 -91.88887 33913 ft 431 kts 294°
2026-05-08 19:15 22.10222 -91.94687 33911 ft 431 kts 294°
2026-05-08 19:15 22.12858 -92.00493 33908 ft 431 kts 294°
2026-05-08 19:16 22.15493 -92.06297 33910 ft 431 kts 294°
2026-05-08 19:16 22.18112 -92.12108 33909 ft 431 kts 294°
2026-05-08 19:17 22.20288 -92.16941 33908 ft 431 kts 294°
2026-05-08 19:17 22.23344 -92.23698 33907 ft 431 kts 294°
2026-05-08 19:18 22.25545 -92.28568 33907 ft 431 kts 294°
2026-05-08 19:18 22.28170 -92.34385 33912 ft 431 kts 294°
2026-05-08 19:19 22.30784 -92.40202 33914 ft 431 kts 293°
2026-05-08 19:19 22.33399 -92.46034 33918 ft 431 kts 293°
2026-05-08 19:20 22.36016 -92.51865 33923 ft 431 kts 293°
2026-05-08 19:20 22.38633 -92.57692 33921 ft 431 kts 293°
2026-05-08 19:21 22.41223 -92.63475 33920 ft 431 kts 293°
2026-05-08 19:21 22.43827 -92.69303 33922 ft 430 kts 293°
2026-05-08 19:22 22.46432 -92.75128 33915 ft 431 kts 293°
2026-05-08 19:22 22.49036 -92.80958 33909 ft 430 kts 293°
2026-05-08 19:23 22.51635 -92.86787 33907 ft 430 kts 293°
2026-05-08 19:23 22.54232 -92.92620 33906 ft 430 kts 292°
2026-05-08 19:24 22.56819 -92.98456 33912 ft 430 kts 292°
2026-05-08 19:24 22.59415 -93.04288 33912 ft 430 kts 292°
2026-05-08 19:25 22.62008 -93.10129 33910 ft 431 kts 292°
2026-05-08 19:25 22.64602 -93.15976 33912 ft 431 kts 292°
2026-05-08 19:26 22.67187 -93.21823 33908 ft 430 kts 292°
2026-05-08 19:26 22.69771 -93.27674 33908 ft 431 kts 292°
2026-05-08 19:27 22.72356 -93.33528 33906 ft 431 kts 292°
2026-05-08 19:27 22.74933 -93.39383 33905 ft 431 kts 292°
2026-05-08 19:28 22.77514 -93.45244 33909 ft 431 kts 292°
2026-05-08 19:28 22.80091 -93.51108 33907 ft 431 kts 292°
2026-05-08 19:29 22.82671 -93.56969 33914 ft 431 kts 292°
2026-05-08 19:29 22.85228 -93.62802 33912 ft 432 kts 292°
2026-05-08 19:30 22.87800 -93.68682 33914 ft 431 kts 292°
2026-05-08 19:30 22.90378 -93.74556 33915 ft 431 kts 292°
2026-05-08 19:31 22.92954 -93.80434 33917 ft 431 kts 292°
2026-05-08 19:31 22.95522 -93.86313 33917 ft 431 kts 292°
2026-05-08 19:32 22.98090 -93.92193 33917 ft 431 kts 292°
2026-05-08 19:32 23.00647 -93.98070 33917 ft 430 kts 292°
2026-05-08 19:33 23.03202 -94.03945 33919 ft 430 kts 292°
2026-05-08 19:33 23.05754 -94.09819 33918 ft 430 kts 291°
2026-05-08 19:34 23.08299 -94.15693 33919 ft 430 kts 291°
2026-05-08 19:34 23.10838 -94.21567 33917 ft 430 kts 291°
2026-05-08 19:35 23.13382 -94.27434 33918 ft 429 kts 291°
2026-05-08 19:35 23.15921 -94.33300 33917 ft 429 kts 291°
2026-05-08 19:36 23.18458 -94.39166 33918 ft 429 kts 291°
2026-05-08 19:36 23.20972 -94.44994 33915 ft 428 kts 291°
2026-05-08 19:37 23.23495 -94.50858 33917 ft 428 kts 291°
2026-05-08 19:37 23.26020 -94.56723 33916 ft 428 kts 291°
2026-05-08 19:38 23.28542 -94.62587 33917 ft 428 kts 291°
2026-05-08 19:38 23.30928 -94.68503 33914 ft 426 kts 289°
2026-05-08 19:39 23.33182 -94.74464 33910 ft 426 kts 289°
2026-05-08 19:39 23.35442 -94.80421 33905 ft 426 kts 289°
2026-05-08 19:40 23.37736 -94.86367 33901 ft 426 kts 289°
2026-05-08 19:40 23.40036 -94.92302 33898 ft 426 kts 289°
2026-05-08 19:41 23.42330 -94.98245 33899 ft 426 kts 289°
2026-05-08 19:41 23.44618 -95.04189 33900 ft 425 kts 289°
2026-05-08 19:42 23.46908 -95.10133 33899 ft 425 kts 289°
2026-05-08 19:42 23.49192 -95.16072 33899 ft 425 kts 289°
2026-05-08 19:43 23.51464 -95.22011 33897 ft 425 kts 289°
2026-05-08 19:43 23.53717 -95.27914 33902 ft 424 kts 289°
2026-05-08 19:44 23.55987 -95.33847 33898 ft 424 kts 289°
2026-05-08 19:44 23.58259 -95.39780 33901 ft 424 kts 289°
2026-05-08 19:45 23.60523 -95.45715 33905 ft 424 kts 289°
2026-05-08 19:45 23.62782 -95.51642 33902 ft 423 kts 288°
2026-05-08 19:46 23.65033 -95.57568 33905 ft 423 kts 288°
2026-05-08 19:46 23.68814 -95.66277 33901 ft 425 kts 294°
2026-05-08 19:47 23.71609 -95.71963 33899 ft 425 kts 294°
2026-05-08 19:47 23.74377 -95.77609 33901 ft 424 kts 294°
2026-05-08 19:48 23.77165 -95.83285 33898 ft 424 kts 294°
2026-05-08 19:48 23.79955 -95.88958 33899 ft 424 kts 294°
2026-05-08 19:49 23.82736 -95.94631 33900 ft 423 kts 293°
2026-05-08 19:49 23.85502 -96.00299 33897 ft 423 kts 293°
2026-05-08 19:50 23.88270 -96.05977 33897 ft 423 kts 293°
2026-05-08 19:50 23.91046 -96.11647 33895 ft 423 kts 293°
2026-05-08 19:51 23.93810 -96.17319 33896 ft 423 kts 293°
2026-05-08 19:51 23.96568 -96.22999 33899 ft 423 kts 293°
2026-05-08 19:52 23.99320 -96.28676 33897 ft 423 kts 293°
2026-05-08 19:52 24.02080 -96.34353 33897 ft 422 kts 293°
2026-05-08 19:53 24.04833 -96.40026 33898 ft 422 kts 293°
2026-05-08 19:53 24.07578 -96.45702 33892 ft 422 kts 293°
2026-05-08 19:54 24.10327 -96.51381 33899 ft 422 kts 293°
2026-05-08 19:54 24.13067 -96.57060 33900 ft 422 kts 293°
2026-05-08 19:55 24.15811 -96.62740 33894 ft 422 kts 293°
2026-05-08 19:55 24.18546 -96.68416 33895 ft 421 kts 292°
2026-05-08 19:56 24.21281 -96.74090 33894 ft 421 kts 292°
2026-05-08 19:56 24.24014 -96.79765 33895 ft 421 kts 292°
2026-05-08 19:57 24.26722 -96.85407 33885 ft 421 kts 292°
2026-05-08 19:57 24.29442 -96.91084 33880 ft 421 kts 292°
2026-05-08 19:58 24.32157 -96.96763 33879 ft 421 kts 292°
2026-05-08 19:58 24.34868 -97.02447 33876 ft 420 kts 292°
2026-05-08 19:59 24.37583 -97.08119 33876 ft 420 kts 292°
2026-05-08 19:59 24.40302 -97.13794 33875 ft 420 kts 292°
2026-05-08 20:00 24.43008 -97.19478 33873 ft 420 kts 292°
2026-05-08 20:00 24.45713 -97.25162 33875 ft 420 kts 292°
2026-05-08 20:01 24.48414 -97.30846 33870 ft 420 kts 292°
2026-05-08 20:01 24.51116 -97.36532 33873 ft 420 kts 292°
2026-05-08 20:02 24.53808 -97.42223 33876 ft 420 kts 292°
2026-05-08 20:02 24.56499 -97.47917 33875 ft 420 kts 292°
2026-05-08 20:03 24.59196 -97.53609 33873 ft 420 kts 292°
2026-05-08 20:03 24.61896 -97.59307 33878 ft 420 kts 292°
2026-05-08 20:04 24.64588 -97.64998 33876 ft 420 kts 292°
2026-05-08 20:04 24.67276 -97.70699 33870 ft 420 kts 292°
2026-05-08 20:05 24.69941 -97.76366 33865 ft 420 kts 292°
2026-05-08 20:05 24.72623 -97.82070 33864 ft 420 kts 292°
2026-05-08 20:06 24.75301 -97.87780 33863 ft 420 kts 291°
2026-05-08 20:06 24.77979 -97.93484 33862 ft 419 kts 291°
2026-05-08 20:07 24.80654 -97.99183 33862 ft 419 kts 291°
2026-05-08 20:07 24.83318 -98.04884 33865 ft 418 kts 291°
2026-05-08 20:08 24.85978 -98.10580 33866 ft 418 kts 291°
2026-05-08 20:08 24.88187 -98.15316 33868 ft 418 kts 291°
2026-05-08 20:09 24.90845 -98.21010 33869 ft 418 kts 291°
2026-05-08 20:09 24.93496 -98.26698 33872 ft 417 kts 291°
2026-05-08 20:10 24.96136 -98.32383 33886 ft 416 kts 291°
2026-05-08 20:10 24.98777 -98.38058 33896 ft 416 kts 291°
2026-05-08 20:11 25.01411 -98.43730 33891 ft 416 kts 291°
2026-05-08 20:11 25.04038 -98.49407 33891 ft 415 kts 291°
2026-05-08 20:12 25.06662 -98.55079 33890 ft 415 kts 291°
2026-05-08 20:12 25.09286 -98.60744 33898 ft 415 kts 291°
2026-05-08 20:13 25.11906 -98.66410 33900 ft 414 kts 291°
2026-05-08 20:13 25.14517 -98.72078 33900 ft 414 kts 291°
2026-05-08 20:14 25.17119 -98.77738 33902 ft 413 kts 290°
2026-05-08 20:14 25.19720 -98.83393 33903 ft 413 kts 290°
2026-05-08 20:15 25.22317 -98.89042 33900 ft 412 kts 290°
2026-05-08 20:15 25.24910 -98.94690 33902 ft 412 kts 290°
2026-05-08 20:16 25.27500 -99.00338 33900 ft 412 kts 290°
2026-05-08 20:16 25.30083 -99.05982 33906 ft 412 kts 290°
2026-05-08 20:17 25.32664 -99.11625 33915 ft 411 kts 290°
2026-05-08 20:17 25.35237 -99.17265 33921 ft 411 kts 290°
2026-05-08 20:18 25.37802 -99.22899 33926 ft 410 kts 290°
2026-05-08 20:18 25.40362 -99.28523 33930 ft 409 kts 290°
2026-05-08 20:19 25.42927 -99.34140 33932 ft 408 kts 290°
2026-05-08 20:19 25.45461 -99.39708 33934 ft 408 kts 290°
2026-05-08 20:20 25.47887 -99.45053 33943 ft 407 kts 290°
2026-05-08 20:20 25.50424 -99.50655 33952 ft 406 kts 290°
2026-05-08 20:21 25.52951 -99.56251 33958 ft 406 kts 289°
2026-05-08 20:21 25.55474 -99.61840 33968 ft 406 kts 289°
2026-05-08 20:22 25.57999 -99.67424 33964 ft 405 kts 289°
2026-05-08 20:22 25.60516 -99.72996 33970 ft 404 kts 289°
2026-05-08 20:23 25.63018 -99.78556 33972 ft 403 kts 289°
2026-05-08 20:23 25.65514 -99.84116 33971 ft 403 kts 289°
2026-05-08 20:24 25.68007 -99.89669 33967 ft 402 kts 289°
2026-05-08 20:24 25.70495 -99.95215 33965 ft 402 kts 289°
2026-05-08 20:25 25.72968 -100.00724 33963 ft 401 kts 289°
2026-05-08 20:25 25.75450 -100.06268 33966 ft 401 kts 289°
2026-05-08 20:26 25.77944 -100.11797 33963 ft 402 kts 290°
2026-05-08 20:26 25.80726 -100.17205 33970 ft 405 kts 293°
2026-05-08 20:27 25.83647 -100.22549 33963 ft 405 kts 293°
2026-05-08 20:27 25.86524 -100.27912 33962 ft 404 kts 292°
2026-05-08 20:28 25.89355 -100.33302 33965 ft 404 kts 292°
2026-05-08 20:28 25.92174 -100.38702 33958 ft 404 kts 292°
2026-05-08 20:29 25.94999 -100.44108 33953 ft 404 kts 292°
2026-05-08 20:29 25.97829 -100.49517 33957 ft 405 kts 292°
2026-05-08 20:30 26.00660 -100.54936 33963 ft 406 kts 292°
2026-05-08 20:30 26.03467 -100.60315 33978 ft 405 kts 292°
2026-05-08 20:31 26.06290 -100.65723 33983 ft 404 kts 291°
2026-05-08 20:31 26.09105 -100.71121 33978 ft 403 kts 292°
2026-05-08 20:32 26.11912 -100.76519 33984 ft 403 kts 291°
2026-05-08 20:32 26.14716 -100.81911 33991 ft 402 kts 291°
2026-05-08 20:33 26.17511 -100.87295 33989 ft 401 kts 291°
2026-05-08 20:33 26.20297 -100.92676 33985 ft 401 kts 291°
2026-05-08 20:34 26.23077 -100.98062 33982 ft 401 kts 291°
2026-05-08 20:35 26.27250 -101.06137 33976 ft 401 kts 291°
2026-05-08 20:35 26.30027 -101.11518 33975 ft 400 kts 291°
2026-05-08 20:36 26.32800 -101.16890 33961 ft 400 kts 291°
2026-05-08 20:36 26.35575 -101.22273 33953 ft 401 kts 291°
2026-05-08 20:37 26.38341 -101.27666 33943 ft 400 kts 290°
2026-05-08 20:37 26.41100 -101.33058 33936 ft 401 kts 290°
2026-05-08 20:38 26.43873 -101.38450 33931 ft 401 kts 291°
2026-05-08 20:38 26.46643 -101.43842 33931 ft 401 kts 290°
2026-05-08 20:39 26.49401 -101.49236 33922 ft 400 kts 290°
2026-05-08 20:39 26.52162 -101.54634 33919 ft 401 kts 290°
2026-05-08 20:40 26.54921 -101.60036 33914 ft 400 kts 290°
2026-05-08 20:40 26.57673 -101.65439 33914 ft 400 kts 290°
2026-05-08 20:41 26.60418 -101.70842 33916 ft 400 kts 290°
2026-05-08 20:41 26.63154 -101.76221 33918 ft 401 kts 290°
2026-05-08 20:42 26.65910 -101.81634 33917 ft 400 kts 290°
2026-05-08 20:42 26.68659 -101.87043 33917 ft 400 kts 290°
2026-05-08 20:43 26.71401 -101.92451 33918 ft 400 kts 290°
2026-05-08 20:43 26.74140 -101.97855 33916 ft 399 kts 290°
2026-05-08 20:44 26.76869 -102.03253 33920 ft 399 kts 290°
2026-05-08 20:44 26.79586 -102.08648 33910 ft 397 kts 289°
2026-05-08 20:45 26.82300 -102.14051 33923 ft 398 kts 290°
2026-05-08 20:45 26.85020 -102.19442 33927 ft 398 kts 290°
2026-05-08 20:46 26.87734 -102.24834 33928 ft 397 kts 290°
2026-05-08 20:46 26.90439 -102.30223 33930 ft 397 kts 290°
2026-05-08 20:47 26.93142 -102.35603 33925 ft 396 kts 289°
2026-05-08 20:47 26.95837 -102.40989 33924 ft 396 kts 289°
2026-05-08 20:48 26.98531 -102.46366 33921 ft 395 kts 289°
2026-05-08 20:48 27.01215 -102.51739 33915 ft 396 kts 289°
2026-05-08 20:49 27.03880 -102.57088 33920 ft 395 kts 289°
2026-05-08 20:49 27.06566 -102.62467 33922 ft 395 kts 289°
2026-05-08 20:50 27.09250 -102.67844 33920 ft 395 kts 289°
2026-05-08 20:50 27.11922 -102.73215 33910 ft 393 kts 289°
2026-05-08 20:51 27.14580 -102.78555 33906 ft 391 kts 289°
2026-05-08 20:51 27.17227 -102.83890 33930 ft 391 kts 289°
2026-05-08 20:52 27.19872 -102.89239 33925 ft 392 kts 289°
2026-05-08 20:52 27.22520 -102.94596 33924 ft 392 kts 289°
2026-05-08 20:53 27.25172 -102.99946 33923 ft 392 kts 289°
2026-05-08 20:53 27.27824 -103.05303 33923 ft 392 kts 289°
2026-05-08 20:54 27.30475 -103.10662 33923 ft 392 kts 289°
2026-05-08 20:54 27.33121 -103.16029 33924 ft 392 kts 289°
2026-05-08 20:55 27.35759 -103.21403 33923 ft 392 kts 289°
2026-05-08 20:55 27.38392 -103.26782 33920 ft 393 kts 289°
2026-05-08 20:56 27.41031 -103.32163 33915 ft 392 kts 289°
2026-05-08 20:56 27.43653 -103.37510 33916 ft 393 kts 289°
2026-05-08 20:57 27.46297 -103.42900 33915 ft 394 kts 289°
2026-05-08 20:57 27.48938 -103.48299 33918 ft 394 kts 289°
2026-05-08 20:58 27.51581 -103.53703 33928 ft 394 kts 289°
2026-05-08 20:58 27.54217 -103.59119 33931 ft 394 kts 289°
2026-05-08 20:59 27.56412 -103.63626 33936 ft 395 kts 289°
2026-05-08 20:59 27.59055 -103.69051 33947 ft 395 kts 289°
2026-05-08 21:00 27.61693 -103.74479 33945 ft 395 kts 289°
2026-05-08 21:00 27.64324 -103.79915 33948 ft 395 kts 289°
2026-05-08 21:01 27.66956 -103.85357 33947 ft 395 kts 289°
2026-05-08 21:01 27.69592 -103.90803 33933 ft 396 kts 289°
2026-05-08 21:02 27.72231 -103.96264 33933 ft 397 kts 289°
2026-05-08 21:02 27.74875 -104.01731 33934 ft 397 kts 289°
2026-05-08 21:03 27.77517 -104.07207 33935 ft 397 kts 289°
2026-05-08 21:03 27.80151 -104.12683 33948 ft 397 kts 289°
2026-05-08 21:04 27.82763 -104.18127 33947 ft 397 kts 289°
2026-05-08 21:04 27.85392 -104.23610 33953 ft 397 kts 289°
2026-05-08 21:05 27.88025 -104.29091 33948 ft 397 kts 289°
2026-05-08 21:05 27.90655 -104.34573 33953 ft 397 kts 289°
2026-05-08 21:06 27.93279 -104.40059 33957 ft 396 kts 289°
2026-05-08 21:06 27.95893 -104.45538 33977 ft 396 kts 289°
2026-05-08 21:07 27.98508 -104.51015 33990 ft 395 kts 289°
2026-05-08 21:07 28.01120 -104.56490 33997 ft 395 kts 289°
2026-05-08 21:08 28.03727 -104.61979 33992 ft 396 kts 289°
2026-05-08 21:08 28.06341 -104.67473 34018 ft 397 kts 289°
2026-05-08 21:09 28.08960 -104.72987 34020 ft 398 kts 289°
2026-05-08 21:09 28.11579 -104.78507 34048 ft 398 kts 289°
2026-05-08 21:10 28.14200 -104.84044 34047 ft 399 kts 289°
2026-05-08 21:10 28.16798 -104.89549 34071 ft 399 kts 289°
2026-05-08 21:11 28.19411 -104.95099 34065 ft 399 kts 289°
2026-05-08 21:11 28.22025 -105.00652 34063 ft 399 kts 289°
2026-05-08 21:12 28.24646 -105.06209 34060 ft 399 kts 289°
2026-05-08 21:12 28.27263 -105.11767 34085 ft 400 kts 289°
2026-05-08 21:13 28.29880 -105.17333 34080 ft 400 kts 289°
2026-05-08 21:13 28.32485 -105.22893 34075 ft 399 kts 289°
2026-05-08 21:14 28.35090 -105.28457 34071 ft 399 kts 289°
2026-05-08 21:14 28.37691 -105.34028 34071 ft 399 kts 289°
2026-05-08 21:15 28.40268 -105.39560 34072 ft 399 kts 289°
2026-05-08 21:15 28.42862 -105.45122 34071 ft 399 kts 289°
2026-05-08 21:16 28.45458 -105.50685 34069 ft 398 kts 290°
2026-05-08 21:16 28.48047 -105.56252 34080 ft 398 kts 289°
2026-05-08 21:17 28.50644 -105.61823 34076 ft 399 kts 290°
2026-05-08 21:17 28.53251 -105.67388 34077 ft 399 kts 290°
2026-05-08 21:18 28.55862 -105.72955 34076 ft 399 kts 290°
2026-05-08 21:18 28.58468 -105.78529 34080 ft 399 kts 290°
2026-05-08 21:19 28.61068 -105.84098 34073 ft 399 kts 290°
2026-05-08 21:19 28.63669 -105.89672 34072 ft 399 kts 290°
2026-05-08 21:20 28.66271 -105.95250 34072 ft 398 kts 290°
2026-05-08 21:20 28.68858 -106.00829 34072 ft 398 kts 290°
2026-05-08 21:21 28.71452 -106.06416 34064 ft 399 kts 290°
2026-05-08 21:21 28.74037 -106.11972 34083 ft 400 kts 290°
2026-05-08 21:22 28.76635 -106.17583 34073 ft 401 kts 290°
2026-05-08 21:22 28.79238 -106.23212 34065 ft 402 kts 290°
2026-05-08 21:23 28.81845 -106.28863 34065 ft 403 kts 290°
2026-05-08 21:23 28.84451 -106.34527 34063 ft 404 kts 291°
2026-05-08 21:24 28.87065 -106.40198 34065 ft 404 kts 291°
2026-05-08 21:24 28.89683 -106.45877 34059 ft 405 kts 291°
2026-05-08 21:25 28.92297 -106.51570 34053 ft 405 kts 291°
2026-05-08 21:25 28.94908 -106.57279 34062 ft 406 kts 291°
2026-05-08 21:26 28.97529 -106.63005 34070 ft 407 kts 291°
2026-05-08 21:26 29.00158 -106.68749 34073 ft 408 kts 291°
2026-05-08 21:27 29.02790 -106.74500 34072 ft 409 kts 291°
2026-05-08 21:27 29.05416 -106.80256 34076 ft 408 kts 291°
2026-05-08 21:28 29.08017 -106.85980 34076 ft 409 kts 291°
2026-05-08 21:28 29.10640 -106.91749 34078 ft 409 kts 292°
2026-05-08 21:29 29.13262 -106.97528 34081 ft 410 kts 292°
2026-05-08 21:29 29.15890 -107.03320 34081 ft 411 kts 292°
2026-05-08 21:30 29.18518 -107.09125 34083 ft 411 kts 292°
2026-05-08 21:30 29.21148 -107.14938 34088 ft 412 kts 292°
2026-05-08 21:31 29.23776 -107.20763 34090 ft 412 kts 292°
2026-05-08 21:31 29.26404 -107.26608 34100 ft 413 kts 293°
2026-05-08 21:32 29.29043 -107.32462 34102 ft 414 kts 293°
2026-05-08 21:32 29.31691 -107.38325 34105 ft 415 kts 294°
2026-05-08 21:33 29.34313 -107.44164 34104 ft 415 kts 294°
2026-05-08 21:33 29.36958 -107.50053 34104 ft 416 kts 294°
2026-05-08 21:34 29.39599 -107.55959 34101 ft 416 kts 294°
2026-05-08 21:34 29.42238 -107.61881 34097 ft 417 kts 295°
2026-05-08 21:35 29.44871 -107.67811 34091 ft 418 kts 295°
2026-05-08 21:35 29.47523 -107.73751 34087 ft 418 kts 295°
2026-05-08 21:36 29.50185 -107.79707 34087 ft 420 kts 296°
2026-05-08 21:36 29.52847 -107.85684 34084 ft 421 kts 296°
2026-05-08 21:37 29.55499 -107.91684 34085 ft 422 kts 296°
2026-05-08 21:37 29.58152 -107.97712 34085 ft 423 kts 296°
2026-05-08 21:38 29.60808 -108.03747 34087 ft 423 kts 296°
2026-05-08 21:38 29.63480 -108.09780 34084 ft 424 kts 297°
2026-05-08 21:39 29.66150 -108.15819 34083 ft 424 kts 297°
2026-05-08 21:39 29.68815 -108.21873 34089 ft 424 kts 296°
2026-05-08 21:40 29.71475 -108.27932 34090 ft 424 kts 296°
2026-05-08 21:40 29.74133 -108.34000 34091 ft 424 kts 296°
2026-05-08 21:41 29.78111 -108.43079 34083 ft 424 kts 296°
2026-05-08 21:41 29.80761 -108.49141 34085 ft 424 kts 296°
2026-05-08 21:42 29.83348 -108.55238 34084 ft 423 kts 295°
2026-05-08 21:42 29.85869 -108.61356 34079 ft 423 kts 295°
2026-05-08 21:43 29.88387 -108.67470 34083 ft 422 kts 295°
2026-05-08 21:43 29.90910 -108.73580 34078 ft 421 kts 296°
2026-05-08 21:44 29.93434 -108.79670 34076 ft 421 kts 296°
2026-05-08 21:44 29.95938 -108.85717 34075 ft 420 kts 296°
2026-05-08 21:45 29.98448 -108.91796 34072 ft 419 kts 296°
2026-05-08 21:45 30.00948 -108.97869 34071 ft 419 kts 296°
2026-05-08 21:46 30.03441 -109.03949 34054 ft 420 kts 298°
2026-05-08 21:46 30.05947 -109.10047 34050 ft 421 kts 298°
2026-05-08 21:47 30.08458 -109.16167 34050 ft 422 kts 298°
2026-05-08 21:47 30.10963 -109.22296 34054 ft 422 kts 298°
2026-05-08 21:48 30.13468 -109.28424 34055 ft 422 kts 298°
2026-05-08 21:48 30.15968 -109.34548 34057 ft 421 kts 298°
2026-05-08 21:49 30.18462 -109.40673 34059 ft 421 kts 298°
2026-05-08 21:49 30.20947 -109.46794 34058 ft 420 kts 298°
2026-05-08 21:50 30.23423 -109.52905 34058 ft 420 kts 298°
2026-05-08 21:50 30.25474 -109.57985 34056 ft 419 kts 298°
2026-05-08 21:51 30.28339 -109.65069 34062 ft 418 kts 299°
2026-05-08 21:51 30.30800 -109.71168 34070 ft 418 kts 299°
2026-05-08 21:52 30.32858 -109.76263 34070 ft 418 kts 299°
2026-05-08 21:52 30.35315 -109.82357 34070 ft 418 kts 298°
2026-05-08 21:53 30.37747 -109.88417 34068 ft 418 kts 298°
2026-05-08 21:53 30.40191 -109.94514 34064 ft 417 kts 298°
2026-05-08 21:54 30.42627 -110.00613 34060 ft 417 kts 298°
2026-05-08 21:54 30.45071 -110.06706 34061 ft 417 kts 299°
2026-05-08 21:55 30.47510 -110.12809 34057 ft 417 kts 298°
2026-05-08 21:56 30.51152 -110.21976 34057 ft 417 kts 298°
2026-05-08 21:56 30.53585 -110.28096 34055 ft 418 kts 298°
2026-05-08 21:57 30.56026 -110.34221 34051 ft 419 kts 298°
2026-05-08 21:57 30.58465 -110.40360 34054 ft 419 kts 298°
2026-05-08 21:58 30.60902 -110.46515 34056 ft 420 kts 298°
2026-05-08 21:58 30.63326 -110.52680 34059 ft 420 kts 298°
2026-05-08 21:59 30.65756 -110.58860 34060 ft 421 kts 298°
2026-05-08 21:59 30.68188 -110.65046 34060 ft 421 kts 298°
2026-05-08 22:00 30.70604 -110.71197 34061 ft 422 kts 298°
2026-05-08 22:00 30.73039 -110.77401 34088 ft 422 kts 298°
2026-05-08 22:01 30.75472 -110.83624 34080 ft 423 kts 298°
2026-05-08 22:01 30.77906 -110.89855 34071 ft 423 kts 298°
2026-05-08 22:02 30.80332 -110.96099 34065 ft 424 kts 298°
2026-05-08 22:02 30.82759 -111.02338 34052 ft 424 kts 297°
2026-05-08 22:03 30.85191 -111.08600 34049 ft 425 kts 297°
2026-05-08 22:03 30.87621 -111.14874 34050 ft 425 kts 297°
2026-05-08 22:04 30.90046 -111.21160 34051 ft 426 kts 297°
2026-05-08 22:04 30.92468 -111.27453 34046 ft 426 kts 295°
2026-05-08 22:05 30.94376 -111.34019 34036 ft 428 kts 291°
2026-05-08 22:05 30.96232 -111.40614 34031 ft 429 kts 291°
2026-05-08 22:06 30.98098 -111.47213 34033 ft 429 kts 291°
2026-05-08 22:06 30.99958 -111.53819 34034 ft 429 kts 291°
2026-05-08 22:07 31.01811 -111.60435 34031 ft 429 kts 291°
2026-05-08 22:07 31.03664 -111.67056 34032 ft 429 kts 291°
2026-05-08 22:08 31.05509 -111.73681 34028 ft 430 kts 291°
2026-05-08 22:08 31.07351 -111.80317 34031 ft 430 kts 291°
2026-05-08 22:09 31.09180 -111.86942 34026 ft 430 kts 291°
2026-05-08 22:09 31.11009 -111.93529 34023 ft 430 kts 291°
2026-05-08 22:10 31.12846 -112.00166 34023 ft 430 kts 290°
2026-05-08 22:10 31.14675 -112.06819 34014 ft 431 kts 290°
2026-05-08 22:11 31.16500 -112.13486 33968 ft 431 kts 290°
2026-05-08 22:11 31.18317 -112.20147 33951 ft 430 kts 290°
2026-05-08 22:12 31.20138 -112.26807 33950 ft 431 kts 290°
2026-05-08 22:12 31.21961 -112.33469 33954 ft 431 kts 290°
2026-05-08 22:13 31.23781 -112.40145 33935 ft 432 kts 290°
2026-05-08 22:13 31.25595 -112.46835 33935 ft 432 kts 290°
2026-05-08 22:14 31.27407 -112.53532 33931 ft 432 kts 289°
2026-05-08 22:14 31.29218 -112.60222 33930 ft 432 kts 290°
2026-05-08 22:15 31.31029 -112.66913 33927 ft 432 kts 289°
2026-05-08 22:15 31.32830 -112.73602 33924 ft 431 kts 289°
2026-05-08 22:16 31.34633 -112.80293 33922 ft 431 kts 289°
2026-05-08 22:16 31.36417 -112.86948 33920 ft 432 kts 289°
2026-05-08 22:17 31.38204 -112.93650 33918 ft 432 kts 289°
2026-05-08 22:17 31.39993 -113.00357 33918 ft 432 kts 289°
2026-05-08 22:18 31.41778 -113.07068 33917 ft 432 kts 289°
2026-05-08 22:18 31.43559 -113.13777 33915 ft 432 kts 289°
2026-05-08 22:19 31.45341 -113.20510 33914 ft 432 kts 289°
2026-05-08 22:19 31.47123 -113.27229 33914 ft 432 kts 289°
2026-05-08 22:20 31.48905 -113.33962 33916 ft 433 kts 289°
2026-05-08 22:20 31.50669 -113.40676 33917 ft 433 kts 288°
2026-05-08 22:21 31.52433 -113.47421 33918 ft 433 kts 288°
2026-05-08 22:21 31.54196 -113.54174 33921 ft 433 kts 288°
2026-05-08 22:22 31.55960 -113.60931 33924 ft 434 kts 288°
2026-05-08 22:22 31.57724 -113.67692 33925 ft 434 kts 288°
2026-05-08 22:23 31.59481 -113.74431 33922 ft 433 kts 288°
2026-05-08 22:23 31.61239 -113.81189 33921 ft 433 kts 288°
2026-05-08 22:24 31.62988 -113.87954 33922 ft 433 kts 288°
2026-05-08 22:24 31.64719 -113.94682 33916 ft 433 kts 288°
2026-05-08 22:25 31.66459 -114.01457 33916 ft 433 kts 288°
2026-05-08 22:25 31.68199 -114.08233 33916 ft 434 kts 288°
2026-05-08 22:26 31.69935 -114.15019 33917 ft 434 kts 288°
2026-05-08 22:26 31.71672 -114.21803 33917 ft 434 kts 288°
2026-05-08 22:27 31.73406 -114.28593 33912 ft 434 kts 287°
2026-05-08 22:27 31.75136 -114.35383 33907 ft 434 kts 287°
2026-05-08 22:28 31.76860 -114.42183 33900 ft 434 kts 287°
2026-05-08 22:28 31.78579 -114.48987 33897 ft 434 kts 287°
2026-05-08 22:29 31.80295 -114.55786 33891 ft 434 kts 287°
2026-05-08 22:29 31.82004 -114.62592 33863 ft 433 kts 287°
2026-05-08 22:29 31.82852 -114.65968 33606 ft 427 kts 287°
2026-05-08 22:30 31.83686 -114.69292 33357 ft 422 kts 287°
2026-05-08 22:30 31.84513 -114.72591 33105 ft 420 kts 287°
2026-05-08 22:30 31.85337 -114.75876 32855 ft 418 kts 287°
2026-05-08 22:30 31.86172 -114.79142 32602 ft 416 kts 289°
2026-05-08 22:31 31.87106 -114.82348 32356 ft 413 kts 291°
2026-05-08 22:31 31.88120 -114.85495 31926 ft 410 kts 292°
2026-05-08 22:31 31.89172 -114.88598 31471 ft 408 kts 293°
2026-05-08 22:31 31.90230 -114.91681 31026 ft 405 kts 292°
2026-05-08 22:32 31.91273 -114.94756 30581 ft 404 kts 292°
2026-05-08 22:32 31.92291 -114.97827 30151 ft 402 kts 292°
2026-05-08 22:32 31.93288 -115.00890 29723 ft 400 kts 292°
2026-05-08 22:32 31.94270 -115.03943 29305 ft 398 kts 291°
2026-05-08 22:33 31.95230 -115.06941 28899 ft 396 kts 291°
2026-05-08 22:33 31.96200 -115.09970 28488 ft 394 kts 292°
2026-05-08 22:33 31.97162 -115.12982 28095 ft 392 kts 291°
2026-05-08 22:33 31.98120 -115.15982 27693 ft 391 kts 291°
2026-05-08 22:34 31.99078 -115.18974 27291 ft 390 kts 292°
2026-05-08 22:34 32.00034 -115.21955 26886 ft 388 kts 292°
2026-05-08 22:34 32.00988 -115.24926 26476 ft 387 kts 292°
2026-05-08 22:34 32.01936 -115.27884 26052 ft 386 kts 292°
2026-05-08 22:35 32.02881 -115.30837 25637 ft 384 kts 292°
2026-05-08 22:35 32.03820 -115.33778 25211 ft 383 kts 292°
2026-05-08 22:35 32.04758 -115.36715 24786 ft 382 kts 292°
2026-05-08 22:35 32.05695 -115.39638 24342 ft 381 kts 292°
2026-05-08 22:36 32.06626 -115.42551 23899 ft 379 kts 292°
2026-05-08 22:36 32.07551 -115.45459 23461 ft 378 kts 292°
2026-05-08 22:36 32.08470 -115.48351 23010 ft 376 kts 292°
2026-05-08 22:36 32.09382 -115.51232 22568 ft 374 kts 292°
2026-05-08 22:37 32.10289 -115.54095 22118 ft 372 kts 292°
2026-05-08 22:37 32.11192 -115.56940 21689 ft 369 kts 292°
2026-05-08 22:37 32.12086 -115.59761 21248 ft 367 kts 292°
2026-05-08 22:37 32.12975 -115.62572 20806 ft 365 kts 292°
2026-05-08 22:38 32.13846 -115.65330 20374 ft 363 kts 292°
2026-05-08 22:38 32.14737 -115.68148 19937 ft 360 kts 292°
2026-05-08 22:38 32.15597 -115.70870 19515 ft 358 kts 292°
2026-05-08 22:38 32.16461 -115.73608 19066 ft 356 kts 292°
2026-05-08 22:39 32.17317 -115.76329 18653 ft 354 kts 292°
2026-05-08 22:39 32.18157 -115.79008 18384 ft 347 kts 292°
2026-05-08 22:39 32.18994 -115.81672 17966 ft 346 kts 292°
2026-05-08 22:39 32.19834 -115.84341 17367 ft 350 kts 292°
2026-05-08 22:40 32.20682 -115.87036 16887 ft 350 kts 291°
2026-05-08 22:40 32.21524 -115.89723 16490 ft 347 kts 291°
2026-05-08 22:40 32.22356 -115.92385 16078 ft 345 kts 291°
2026-05-08 22:40 32.23179 -115.95016 15667 ft 343 kts 291°
2026-05-08 22:41 32.24001 -115.97650 15257 ft 341 kts 291°
2026-05-08 22:41 32.24815 -116.00270 14843 ft 338 kts 291°
2026-05-08 22:41 32.25624 -116.02868 14437 ft 336 kts 291°
2026-05-08 22:41 32.26428 -116.05449 14030 ft 334 kts 291°
2026-05-08 22:42 32.27229 -116.08021 13629 ft 332 kts 291°
2026-05-08 22:42 32.28025 -116.10578 13232 ft 330 kts 291°
2026-05-08 22:42 32.28818 -116.13116 12823 ft 329 kts 291°
2026-05-08 22:42 32.29342 -116.14796 12557 ft 328 kts 290°
2026-05-08 22:43 32.30126 -116.17319 12153 ft 326 kts 290°
2026-05-08 22:43 32.30906 -116.19830 11755 ft 325 kts 290°
2026-05-08 22:43 32.31681 -116.22326 11366 ft 323 kts 290°
2026-05-08 22:43 32.32475 -116.24892 10957 ft 350 kts 290°
2026-05-08 22:44 32.33328 -116.27653 10558 ft 359 kts 290°
2026-05-08 22:44 32.34166 -116.30372 10381 ft 344 kts 290°
2026-05-08 22:44 32.34968 -116.32972 10264 ft 329 kts 290°
2026-05-08 22:44 32.35742 -116.35485 10006 ft 322 kts 290°
2026-05-08 22:45 32.36498 -116.37946 9784 ft 313 kts 290°
2026-05-08 22:45 32.37231 -116.40329 9611 ft 304 kts 290°
2026-05-08 22:45 32.37947 -116.42658 9327 ft 299 kts 290°
2026-05-08 22:45 32.38654 -116.44959 8978 ft 298 kts 290°
2026-05-08 22:46 32.39340 -116.47251 8433 ft 293 kts 287°
2026-05-08 22:46 32.39846 -116.49574 7809 ft 291 kts 281°
2026-05-08 22:46 32.40169 -116.51921 7184 ft 287 kts 278°
2026-05-08 22:46 32.40478 -116.54248 6670 ft 287 kts 279°
2026-05-08 22:47 32.40789 -116.56566 6355 ft 284 kts 279°
2026-05-08 22:47 32.41100 -116.58867 5932 ft 286 kts 279°
2026-05-08 22:47 32.41415 -116.61188 5641 ft 282 kts 279°
2026-05-08 22:47 32.41714 -116.63407 5478 ft 263 kts 279°
2026-05-08 22:48 32.42079 -116.65447 5370 ft 243 kts 285°
2026-05-08 22:48 32.42536 -116.67279 5278 ft 221 kts 287°
2026-05-08 22:48 32.42971 -116.68952 5189 ft 207 kts 287°
2026-05-08 22:48 32.43376 -116.70517 5140 ft 197 kts 287°
2026-05-08 22:49 32.43777 -116.72065 5019 ft 194 kts 286°
2026-05-08 22:49 32.44553 -116.75065 4517 ft 189 kts 287°
2026-05-08 22:49 32.44937 -116.76556 4250 ft 188 kts 287°
2026-05-08 22:50 32.45315 -116.78018 4000 ft 184 kts 287°
2026-05-08 22:50 32.45690 -116.79466 3780 ft 183 kts 287°
2026-05-08 22:50 32.46058 -116.80891 3537 ft 181 kts 287°
2026-05-08 22:50 32.46452 -116.82296 3299 ft 179 kts 294°
2026-05-08 22:51 32.47101 -116.83534 3069 ft 177 kts 309°
2026-05-08 22:51 32.48004 -116.84522 2827 ft 177 kts 324°
2026-05-08 22:51 32.49079 -116.85185 2592 ft 174 kts 337°
2026-05-08 22:51 32.50176 -116.85677 2386 ft 165 kts 336°
2026-05-08 22:52 32.51171 -116.86189 2153 ft 148 kts 326°
2026-05-08 22:52 32.51972 -116.86914 1964 ft 140 kts 312°
2026-05-08 22:52 32.52567 -116.87795 1783 ft 135 kts 299°
2026-05-08 22:52 32.52953 -116.88763 1616 ft 132 kts 287°
2026-05-08 22:53 32.53153 -116.89818 1437 ft 131 kts 277°
2026-05-08 22:53 32.53290 -116.90878 1264 ft 130 kts 278°
2026-05-08 22:53 32.53430 -116.91936 1093 ft 131 kts 278°
2026-05-08 22:53 32.53571 -116.93001 916 ft 131 kts 278°
2026-05-08 22:54 32.53709 -116.94067 766 ft 131 kts 278°
2026-05-08 22:54 32.53861 -116.95136 596 ft 132 kts 280°
2026-05-08 22:54 32.53995 -116.96194 490 ft 121 kts 280°
2026-05-08 22:54 32.54090 -116.96857 484 ft 46 kts 279°
2026-05-08 22:55 32.54153 -116.97225 490 ft 42 kts 292°
2026-05-08 22:55 32.54263 -116.97378 494 ft 22 kts 317°
2026-05-08 22:55 32.54369 -116.97409 495 ft 11 kts
2026-05-08 22:55 32.54414 -116.97418 495 ft 1 kts 344°
2026-05-08 22:56 32.54435 -116.97425 493 ft 5 kts 342°
2026-05-08 22:56 32.54437 -116.97426 499 ft 0 kts 342°